contact:dominique.lefevre@mio.osupytheas.fr, maurice.libes@osupytheas.fr, didier.mallarino@osupytheas.fr
Project:EMSO http://www.emso-fr.org/EMSO-France
Depth: 2436.0 m
Title:EMSO Ligure Ouest : Data MII capteur CSTAR
DateTime,Latitude,Longitude,Instrument_Serial,Reference_Counts,Signal_Counts,Corrected_Signal_raw_counts,Calculated_Beam_c_inverse_meters,Internal_thermistor_counts
DateTime,Latitude,Longitude,Instrument_Serial,Reference_Counts,Signal_Counts,Corrected_Signal_raw_counts,Calculated_Beam_c_inverse_meters,Internal_thermistor_counts
2024-05-05T00:01:17,42.805,6.029,CST-1368DR,4088,4199,10882,01.445,553
2024-05-05T00:04:19,42.805,6.029,CST-1368DR,4088,4200,10886,01.443,553
2024-05-05T00:07:20,42.805,6.029,CST-1368DR,4088,4200,10885,01.444,553
2024-05-05T00:10:22,42.805,6.029,CST-1368DR,4088,4201,10888,01.443,553
2024-05-05T00:13:23,42.805,6.029,CST-1368DR,4088,4199,10882,01.445,553
2024-05-05T00:16:25,42.805,6.029,CST-1368DR,4088,4201,10888,01.443,553
2024-05-05T00:19:26,42.805,6.029,CST-1368DR,4088,4199,10882,01.445,553
2024-05-05T00:22:28,42.805,6.029,CST-1368DR,4088,4197,10877,01.447,553
2024-05-05T00:25:30,42.805,6.029,CST-1368DR,4088,4198,10880,01.445,553
2024-05-05T00:28:31,42.805,6.029,CST-1368DR,4088,4200,10886,01.443,553
2024-05-05T00:31:33,42.805,6.029,CST-1368DR,4088,4199,10882,01.445,553
2024-05-05T00:34:34,42.805,6.029,CST-1368DR,4088,4198,10879,01.446,553
2024-05-05T00:37:36,42.805,6.029,CST-1368DR,4088,4198,10881,01.445,553
2024-05-05T00:40:37,42.805,6.029,CST-1368DR,4088,4199,10882,01.445,553
2024-05-05T00:43:39,42.805,6.029,CST-1368DR,4088,4199,10883,01.444,553
2024-05-05T00:46:41,42.805,6.029,CST-1368DR,4088,4198,10881,01.445,553
2024-05-05T00:49:42,42.805,6.029,CST-1368DR,4088,4198,10879,01.446,553
2024-05-05T00:52:44,42.805,6.029,CST-1368DR,4088,4197,10878,01.446,553
2024-05-05T00:55:45,42.805,6.029,CST-1368DR,4088,4197,10877,01.447,553
2024-05-05T00:58:47,42.805,6.029,CST-1368DR,4088,4197,10877,01.447,553
2024-05-05T01:01:48,42.805,6.029,CST-1368DR,4088,4199,10882,01.445,553
2024-05-05T01:04:50,42.805,6.029,CST-1368DR,4088,4200,10886,01.443,553
2024-05-05T01:07:52,42.805,6.029,CST-1368DR,4088,4196,10875,01.447,553
2024-05-05T01:10:53,42.805,6.029,CST-1368DR,4088,4200,10885,01.444,553
2024-05-05T01:13:55,42.805,6.029,CST-1368DR,4088,4202,10889,01.442,553
2024-05-05T01:16:56,42.805,6.029,CST-1368DR,4088,4206,10901,01.438,553
2024-05-05T01:19:58,42.805,6.029,CST-1368DR,4088,4203,10892,01.441,553
2024-05-05T01:23:00,42.805,6.029,CST-1368DR,4088,4201,10887,01.443,553
2024-05-05T01:26:01,42.805,6.029,CST-1368DR,4088,4198,10880,01.445,553
2024-05-05T01:29:03,42.805,6.029,CST-1368DR,4088,4201,10888,01.443,553
2024-05-05T01:32:04,42.805,6.029,CST-1368DR,4088,4201,10888,01.443,553
2024-05-05T01:35:06,42.805,6.029,CST-1368DR,4088,4201,10887,01.443,553
2024-05-05T01:38:07,42.805,6.029,CST-1368DR,4088,4202,10891,01.441,553
2024-05-05T01:41:09,42.805,6.029,CST-1368DR,4088,4200,10885,01.444,553
2024-05-05T01:44:11,42.805,6.029,CST-1368DR,4088,4202,10891,01.441,553
2024-05-05T01:47:12,42.805,6.029,CST-1368DR,4088,4204,10896,01.440,553
2024-05-05T01:50:14,42.805,6.029,CST-1368DR,4088,4202,10889,01.442,553
2024-05-05T01:53:15,42.805,6.029,CST-1368DR,4088,4200,10886,01.443,553
2024-05-05T01:56:17,42.805,6.029,CST-1368DR,4088,4203,10893,01.441,553
2024-05-05T01:59:18,42.805,6.029,CST-1368DR,4088,4202,10890,01.442,553
2024-05-05T02:02:20,42.805,6.029,CST-1368DR,4088,4202,10891,01.441,553
2024-05-05T02:05:21,42.805,6.029,CST-1368DR,4088,4202,10890,01.442,553
2024-05-05T02:08:23,42.805,6.029,CST-1368DR,4088,4198,10879,01.446,553
2024-05-05T02:11:24,42.805,6.029,CST-1368DR,4088,4201,10887,01.443,553
2024-05-05T02:14:26,42.805,6.029,CST-1368DR,4088,4203,10893,01.441,553
2024-05-05T02:17:27,42.805,6.029,CST-1368DR,4088,4203,10892,01.441,553
2024-05-05T02:20:29,42.805,6.029,CST-1368DR,4088,4203,10893,01.441,553
2024-05-05T02:23:31,42.805,6.029,CST-1368DR,4088,4202,10891,01.441,553
2024-05-05T02:26:32,42.805,6.029,CST-1368DR,4088,4201,10888,01.443,553
2024-05-05T02:29:34,42.805,6.029,CST-1368DR,4088,4201,10888,01.443,553
2024-05-05T02:32:35,42.805,6.029,CST-1368DR,4088,4200,10884,01.444,553
2024-05-05T02:35:37,42.805,6.029,CST-1368DR,4088,4199,10884,01.444,553
2024-05-05T02:38:39,42.805,6.029,CST-1368DR,4088,4198,10879,01.446,553
2024-05-05T02:41:40,42.805,6.029,CST-1368DR,4088,4200,10885,01.444,553
2024-05-05T02:44:42,42.805,6.029,CST-1368DR,4088,4201,10888,01.443,553
2024-05-05T02:47:43,42.805,6.029,CST-1368DR,4088,4202,10891,01.441,553
2024-05-05T02:50:45,42.805,6.029,CST-1368DR,4088,4200,10885,01.444,553
2024-05-05T02:53:46,42.805,6.029,CST-1368DR,4088,4200,10886,01.443,553
2024-05-05T02:56:48,42.805,6.029,CST-1368DR,4088,4200,10886,01.443,553
2024-05-05T02:59:50,42.805,6.029,CST-1368DR,4088,4203,10893,01.441,553
2024-05-05T03:02:51,42.805,6.029,CST-1368DR,4088,4201,10888,01.443,553
2024-05-05T03:05:53,42.805,6.029,CST-1368DR,4088,4203,10893,01.441,553
2024-05-05T03:08:54,42.805,6.029,CST-1368DR,4088,4201,10887,01.443,553
2024-05-05T03:11:56,42.805,6.029,CST-1368DR,4088,4199,10884,01.444,553
2024-05-05T03:14:57,42.805,6.029,CST-1368DR,4088,4201,10888,01.443,553
2024-05-05T03:17:59,42.805,6.029,CST-1368DR,4088,4203,10892,01.441,553
2024-05-05T03:21:01,42.805,6.029,CST-1368DR,4088,4203,10893,01.441,553
2024-05-05T03:24:02,42.805,6.029,CST-1368DR,4088,4201,10887,01.443,553
2024-05-05T03:27:04,42.805,6.029,CST-1368DR,4088,4202,10890,01.442,553
2024-05-05T03:30:05,42.805,6.029,CST-1368DR,4088,4201,10888,01.443,553
2024-05-05T03:33:07,42.805,6.029,CST-1368DR,4088,4201,10888,01.443,553
2024-05-05T03:36:09,42.805,6.029,CST-1368DR,4088,4200,10886,01.443,553
2024-05-05T03:39:10,42.805,6.029,CST-1368DR,4088,4204,10895,01.440,553
2024-05-05T03:42:12,42.805,6.029,CST-1368DR,4088,4203,10894,01.440,553
2024-05-05T03:50:07,42.805,6.029,CST-1368DR,4088,4202,10891,01.441,553
2024-05-05T03:53:08,42.805,6.029,CST-1368DR,4088,4203,10893,01.441,553
2024-05-05T03:56:10,42.805,6.029,CST-1368DR,4088,4201,10887,01.443,553
2024-05-05T03:59:12,42.805,6.029,CST-1368DR,4088,4201,10887,01.443,553
2024-05-05T04:02:13,42.805,6.029,CST-1368DR,4088,4199,10883,01.444,553
2024-05-05T04:05:15,42.805,6.029,CST-1368DR,4088,4202,10891,01.441,553
2024-05-05T04:08:16,42.805,6.029,CST-1368DR,4088,4203,10892,01.441,553
2024-05-05T04:11:18,42.805,6.029,CST-1368DR,4088,4201,10888,01.443,553
2024-05-05T04:14:19,42.805,6.029,CST-1368DR,4088,4201,10888,01.443,553
2024-05-05T04:17:21,42.805,6.029,CST-1368DR,4088,4202,10890,01.442,553
2024-05-05T04:20:23,42.805,6.029,CST-1368DR,4088,4198,10879,01.446,553
2024-05-05T04:23:24,42.805,6.029,CST-1368DR,4088,4200,10886,01.443,553
2024-05-05T04:26:26,42.805,6.029,CST-1368DR,4088,4201,10887,01.443,553
2024-05-05T04:29:27,42.805,6.029,CST-1368DR,4088,4202,10890,01.442,553
2024-05-05T04:32:29,42.805,6.029,CST-1368DR,4088,4201,10887,01.443,553
2024-05-05T04:35:30,42.805,6.029,CST-1368DR,4088,4201,10888,01.443,553
2024-05-05T04:38:32,42.805,6.029,CST-1368DR,4088,4201,10888,01.443,553
2024-05-05T04:41:34,42.805,6.029,CST-1368DR,4088,4200,10886,01.443,553
2024-05-05T04:44:35,42.805,6.029,CST-1368DR,4088,4201,10887,01.443,553
2024-05-05T04:47:37,42.805,6.029,CST-1368DR,4088,4201,10887,01.443,553
2024-05-05T04:50:38,42.805,6.029,CST-1368DR,4088,4200,10886,01.443,553
2024-05-05T04:53:40,42.805,6.029,CST-1368DR,4088,4200,10886,01.443,553
2024-05-05T04:56:42,42.805,6.029,CST-1368DR,4088,4199,10883,01.444,553
2024-05-05T04:59:43,42.805,6.029,CST-1368DR,4088,4202,10891,01.441,553
2024-05-05T05:02:45,42.805,6.029,CST-1368DR,4088,4202,10891,01.441,553
2024-05-05T05:05:46,42.805,6.029,CST-1368DR,4088,4199,10882,01.445,553
2024-05-05T05:08:48,42.805,6.029,CST-1368DR,4087,4192,10867,01.450,553
2024-05-05T05:11:49,42.805,6.029,CST-1368DR,4088,4193,10866,01.451,553
2024-05-05T05:14:51,42.805,6.029,CST-1368DR,4088,4195,10873,01.448,553
2024-05-05T05:17:53,42.805,6.029,CST-1368DR,4088,4196,10875,01.447,553
2024-05-05T05:20:54,42.805,6.029,CST-1368DR,4088,4194,10871,01.449,553
2024-05-05T05:23:56,42.805,6.029,CST-1368DR,4088,4197,10877,01.447,553
2024-05-05T05:26:57,42.805,6.029,CST-1368DR,4087,4195,10876,01.447,553
2024-05-05T05:29:59,42.805,6.029,CST-1368DR,4088,4193,10868,01.450,553
2024-05-05T05:33:00,42.805,6.029,CST-1368DR,4088,4196,10874,01.448,553
2024-05-05T05:36:02,42.805,6.029,CST-1368DR,4088,4197,10878,01.446,553
2024-05-05T05:39:04,42.805,6.029,CST-1368DR,4088,4196,10875,01.447,553
2024-05-05T05:42:05,42.805,6.029,CST-1368DR,4088,4193,10868,01.450,553
2024-05-05T05:45:07,42.805,6.029,CST-1368DR,4087,4194,10871,01.449,553
2024-05-05T05:48:08,42.805,6.029,CST-1368DR,4088,4194,10869,01.450,553
2024-05-05T05:51:10,42.805,6.029,CST-1368DR,4087,4195,10875,01.447,553
2024-05-05T05:54:12,42.805,6.029,CST-1368DR,4088,4194,10870,01.449,553
2024-05-05T05:57:13,42.805,6.029,CST-1368DR,4087,4194,10872,01.448,553
2024-05-05T06:00:15,42.805,6.029,CST-1368DR,4087,4196,10877,01.447,553
2024-05-05T06:03:19,42.805,6.029,CST-1368DR,4088,4194,10871,01.449,553
2024-05-05T06:06:20,42.805,6.029,CST-1368DR,4087,4193,10869,01.450,553
2024-05-05T06:09:22,42.805,6.029,CST-1368DR,4087,4196,10877,01.447,553
2024-05-05T06:12:24,42.805,6.029,CST-1368DR,4087,4195,10876,01.447,553
2024-05-05T06:15:25,42.805,6.029,CST-1368DR,4087,4194,10873,01.448,553
2024-05-05T06:18:27,42.805,6.029,CST-1368DR,4088,4196,10876,01.447,553
2024-05-05T06:21:28,42.805,6.029,CST-1368DR,4087,4197,10880,01.445,553
2024-05-05T06:24:30,42.805,6.029,CST-1368DR,4087,4197,10880,01.445,553
2024-05-05T06:27:31,42.805,6.029,CST-1368DR,4087,4197,10879,01.446,553
2024-05-05T06:30:33,42.805,6.029,CST-1368DR,4087,4196,10876,01.447,553
2024-05-05T06:33:35,42.805,6.029,CST-1368DR,4087,4193,10870,01.449,553
2024-05-05T06:36:36,42.805,6.029,CST-1368DR,4087,4194,10873,01.448,553
2024-05-05T06:39:38,42.805,6.029,CST-1368DR,4087,4196,10878,01.446,553
2024-05-05T06:42:39,42.805,6.029,CST-1368DR,4088,4242,10995,01.403,553
2024-05-05T06:45:41,42.805,6.029,CST-1368DR,4088,4242,10994,01.404,553
2024-05-05T06:48:43,42.805,6.029,CST-1368DR,4088,4239,10987,01.406,553
2024-05-05T06:51:44,42.805,6.029,CST-1368DR,4088,4240,10990,01.405,553
2024-05-05T06:54:46,42.805,6.029,CST-1368DR,4088,4241,10992,01.405,553
2024-05-05T06:57:47,42.805,6.029,CST-1368DR,4088,4241,10992,01.405,553
2024-05-05T07:00:49,42.805,6.029,CST-1368DR,4088,4240,10990,01.405,553
2024-05-05T07:03:50,42.805,6.029,CST-1368DR,4088,4243,10996,01.403,553
2024-05-05T07:06:52,42.805,6.029,CST-1368DR,4088,4241,10992,01.405,553
2024-05-05T07:09:54,42.805,6.029,CST-1368DR,4088,4243,10997,01.403,553
2024-05-05T07:12:55,42.805,6.029,CST-1368DR,4088,4242,10993,01.404,553
2024-05-05T07:15:57,42.805,6.029,CST-1368DR,4088,4242,10995,01.403,553
2024-05-05T07:18:58,42.805,6.029,CST-1368DR,4088,4242,10994,01.404,553
2024-05-05T07:22:00,42.805,6.029,CST-1368DR,4088,4242,10995,01.403,553
2024-05-05T07:25:01,42.805,6.029,CST-1368DR,4088,4240,10990,01.405,553
2024-05-05T07:28:03,42.805,6.029,CST-1368DR,4088,4243,10996,01.403,553
2024-05-05T07:31:05,42.805,6.029,CST-1368DR,4088,4242,10994,01.404,553
2024-05-05T07:34:06,42.805,6.029,CST-1368DR,4088,4242,10994,01.404,553
2024-05-05T07:37:08,42.805,6.029,CST-1368DR,4088,4239,10986,01.407,553
2024-05-05T07:40:09,42.805,6.029,CST-1368DR,4088,4243,10997,01.403,553
2024-05-05T07:43:11,42.805,6.029,CST-1368DR,4088,4243,10996,01.403,553
2024-05-05T07:46:13,42.805,6.029,CST-1368DR,4088,4242,10995,01.403,553
2024-05-05T07:49:14,42.805,6.029,CST-1368DR,4088,4241,10992,01.405,553
2024-05-05T07:52:16,42.805,6.029,CST-1368DR,4088,4234,10974,01.411,553
2024-05-05T07:55:17,42.805,6.029,CST-1368DR,4088,4235,10976,01.410,553
2024-05-05T07:58:19,42.805,6.029,CST-1368DR,4088,4234,10974,01.411,553
2024-05-05T08:01:20,42.805,6.029,CST-1368DR,4088,4230,10962,01.415,553
2024-05-05T08:04:22,42.805,6.029,CST-1368DR,4088,4234,10973,01.411,553
2024-05-05T08:07:24,42.805,6.029,CST-1368DR,4088,4233,10970,01.413,553
2024-05-05T08:10:25,42.805,6.029,CST-1368DR,4088,4236,10980,01.409,553
2024-05-05T08:13:27,42.805,6.029,CST-1368DR,4087,4235,10978,01.410,553
2024-05-05T08:16:28,42.805,6.029,CST-1368DR,4088,4233,10971,01.412,553
2024-05-05T08:19:30,42.805,6.029,CST-1368DR,4087,4232,10972,01.412,553
2024-05-05T08:22:31,42.805,6.029,CST-1368DR,4087,4232,10971,01.412,553
2024-05-05T08:25:33,42.805,6.029,CST-1368DR,4088,4233,10970,01.413,553
2024-05-05T08:28:35,42.805,6.029,CST-1368DR,4088,4236,10978,01.410,553
2024-05-05T08:31:36,42.805,6.029,CST-1368DR,4088,4234,10973,01.411,553
2024-05-05T08:34:38,42.805,6.029,CST-1368DR,4088,4233,10972,01.412,553
2024-05-05T08:37:39,42.805,6.029,CST-1368DR,4087,4234,10975,01.411,553
2024-05-05T08:40:41,42.805,6.029,CST-1368DR,4087,4233,10974,01.411,553
2024-05-05T08:43:43,42.805,6.029,CST-1368DR,4087,4233,10974,01.411,553
2024-05-05T08:46:44,42.805,6.029,CST-1368DR,4087,4231,10969,01.413,553
2024-05-05T08:49:46,42.805,6.029,CST-1368DR,4087,4229,10964,01.415,553
2024-05-05T08:52:47,42.805,6.029,CST-1368DR,4087,4228,10959,01.417,553
2024-05-05T08:55:49,42.805,6.029,CST-1368DR,4087,4229,10963,01.415,553
2024-05-05T08:58:50,42.805,6.029,CST-1368DR,4087,4228,10961,01.416,553
2024-05-05T09:01:52,42.805,6.029,CST-1368DR,4087,4223,10948,01.421,553
2024-05-05T09:04:54,42.805,6.029,CST-1368DR,4087,4223,10946,01.421,553
2024-05-05T09:07:55,42.805,6.029,CST-1368DR,4087,4227,10959,01.417,553
2024-05-05T09:10:57,42.805,6.029,CST-1368DR,4087,4223,10948,01.421,553
2024-05-05T09:13:58,42.805,6.029,CST-1368DR,4087,4220,10939,01.424,553
2024-05-05T09:17:00,42.805,6.029,CST-1368DR,4087,4221,10942,01.423,553
2024-05-05T09:20:01,42.805,6.029,CST-1368DR,4087,4212,10919,01.431,553
2024-05-05T09:23:03,42.805,6.029,CST-1368DR,4087,4211,10917,01.432,553
2024-05-05T09:26:05,42.805,6.029,CST-1368DR,4087,4210,10913,01.433,553
2024-05-05T09:29:06,42.805,6.029,CST-1368DR,4087,4211,10915,01.433,553
2024-05-05T09:32:08,42.805,6.029,CST-1368DR,4087,4207,10907,01.436,553
2024-05-05T09:35:09,42.805,6.029,CST-1368DR,4087,4209,10912,01.434,553
2024-05-05T09:38:11,42.805,6.029,CST-1368DR,4087,4212,10919,01.431,553
2024-05-05T09:41:13,42.805,6.029,CST-1368DR,4087,4206,10902,01.437,553
2024-05-05T09:44:14,42.805,6.029,CST-1368DR,4087,4206,10903,01.437,553
2024-05-05T09:47:16,42.805,6.029,CST-1368DR,4087,4204,10897,01.439,553
2024-05-05T09:50:17,42.805,6.029,CST-1368DR,4087,4203,10895,01.440,553
2024-05-05T09:53:19,42.805,6.029,CST-1368DR,4087,4203,10896,01.440,553
2024-05-05T09:56:20,42.805,6.029,CST-1368DR,4087,4206,10902,01.437,553
2024-05-05T09:59:22,42.805,6.029,CST-1368DR,4087,4202,10893,01.441,553
2024-05-05T10:02:26,42.805,6.029,CST-1368DR,4087,4203,10897,01.439,553
2024-05-05T10:05:28,42.805,6.029,CST-1368DR,4087,4203,10896,01.440,553
2024-05-05T10:08:30,42.805,6.029,CST-1368DR,4087,4205,10901,01.438,553
2024-05-05T10:11:31,42.805,6.029,CST-1368DR,4087,4203,10895,01.440,553
2024-05-05T10:14:33,42.805,6.029,CST-1368DR,4087,4202,10893,01.441,553
2024-05-05T10:17:34,42.805,6.029,CST-1368DR,4087,4200,10888,01.443,553
2024-05-05T10:20:36,42.805,6.029,CST-1368DR,4087,4200,10888,01.443,553
2024-05-05T10:23:37,42.805,6.029,CST-1368DR,4087,4204,10897,01.439,553
2024-05-05T10:26:39,42.805,6.029,CST-1368DR,4087,4204,10899,01.438,553
2024-05-05T10:29:41,42.805,6.029,CST-1368DR,4087,4199,10885,01.444,553
2024-05-05T10:32:42,42.805,6.029,CST-1368DR,4087,4201,10890,01.442,553
2024-05-05T10:35:44,42.805,6.029,CST-1368DR,4087,4199,10886,01.443,553
2024-05-05T10:38:45,42.805,6.029,CST-1368DR,4087,4200,10888,01.443,553
2024-05-05T10:41:47,42.805,6.029,CST-1368DR,4087,4201,10890,01.442,553
2024-05-05T10:44:49,42.805,6.029,CST-1368DR,4087,4205,10900,01.438,553
2024-05-05T10:47:50,42.805,6.029,CST-1368DR,4087,4199,10886,01.443,553
2024-05-05T10:50:52,42.805,6.029,CST-1368DR,4087,4204,10899,01.438,553
2024-05-05T10:53:53,42.805,6.029,CST-1368DR,4087,4201,10890,01.442,553
2024-05-05T10:56:55,42.805,6.029,CST-1368DR,4087,4202,10892,01.441,553
2024-05-05T10:59:56,42.805,6.029,CST-1368DR,4087,4198,10883,01.444,553
2024-05-05T11:02:58,42.805,6.029,CST-1368DR,4087,4199,10885,01.444,553
2024-05-05T11:06:00,42.805,6.029,CST-1368DR,4087,4197,10881,01.445,553
2024-05-05T11:09:01,42.805,6.029,CST-1368DR,4087,4205,10901,01.438,553
2024-05-05T11:12:03,42.805,6.029,CST-1368DR,4087,4200,10888,01.443,553
2024-05-05T11:15:04,42.805,6.029,CST-1368DR,4087,4204,10899,01.438,553
2024-05-05T11:18:06,42.805,6.029,CST-1368DR,4087,4203,10895,01.440,553
2024-05-05T11:21:07,42.805,6.029,CST-1368DR,4087,4203,10895,01.440,553
2024-05-05T11:24:09,42.805,6.029,CST-1368DR,4087,4199,10886,01.443,553
2024-05-05T11:27:11,42.805,6.029,CST-1368DR,4087,4197,10879,01.446,553
2024-05-05T11:30:12,42.805,6.029,CST-1368DR,4087,4203,10895,01.440,553
2024-05-05T11:33:14,42.805,6.029,CST-1368DR,4087,4206,10904,01.437,553
2024-05-05T11:36:15,42.805,6.029,CST-1368DR,4087,4199,10885,01.444,553
2024-05-05T11:39:17,42.805,6.029,CST-1368DR,4087,4201,10891,01.441,553
2024-05-05T11:42:19,42.805,6.029,CST-1368DR,4087,4200,10887,01.443,553
2024-05-05T11:45:20,42.805,6.029,CST-1368DR,4087,4194,10873,01.448,553
2024-05-05T11:48:22,42.805,6.029,CST-1368DR,4087,4198,10884,01.444,553
2024-05-05T11:51:23,42.805,6.029,CST-1368DR,4087,4199,10886,01.443,553
2024-05-05T11:54:25,42.805,6.029,CST-1368DR,4087,4200,10889,01.442,553
2024-05-05T11:57:26,42.805,6.029,CST-1368DR,4087,4206,10902,01.437,553
2024-05-05T12:00:28,42.805,6.029,CST-1368DR,4087,4198,10884,01.444,553
2024-05-05T12:03:30,42.805,6.029,CST-1368DR,4087,4203,10897,01.439,553
2024-05-05T12:06:31,42.805,6.029,CST-1368DR,4087,4199,10885,01.444,553
2024-05-05T12:09:33,42.805,6.029,CST-1368DR,4087,4196,10877,01.447,553
2024-05-05T12:12:34,42.805,6.029,CST-1368DR,4087,4196,10878,01.446,553
2024-05-05T12:15:36,42.805,6.029,CST-1368DR,4087,4201,10889,01.442,553
2024-05-05T12:18:37,42.805,6.029,CST-1368DR,4087,4197,10879,01.446,553
2024-05-05T12:21:39,42.805,6.029,CST-1368DR,4087,4195,10875,01.447,553
2024-05-05T12:24:41,42.805,6.029,CST-1368DR,4087,4200,10889,01.442,553
2024-05-05T12:27:42,42.805,6.029,CST-1368DR,4087,4203,10895,01.440,553
2024-05-05T12:30:44,42.805,6.029,CST-1368DR,4087,4198,10882,01.445,553
2024-05-05T12:33:45,42.805,6.029,CST-1368DR,4087,4201,10890,01.442,553
2024-05-05T12:36:47,42.805,6.029,CST-1368DR,4087,4202,10893,01.441,553
2024-05-05T12:39:49,42.805,6.029,CST-1368DR,4087,4203,10895,01.440,553
2024-05-05T12:42:50,42.805,6.029,CST-1368DR,4087,4199,10886,01.443,553
2024-05-05T12:45:52,42.805,6.029,CST-1368DR,4087,4199,10886,01.443,553
2024-05-05T12:48:53,42.805,6.029,CST-1368DR,4087,4200,10889,01.442,553
2024-05-05T12:51:55,42.805,6.029,CST-1368DR,4087,4198,10882,01.445,553
2024-05-05T12:54:56,42.805,6.029,CST-1368DR,4087,4199,10885,01.444,553
2024-05-05T12:57:58,42.805,6.029,CST-1368DR,4087,4197,10880,01.445,553
2024-05-05T13:01:00,42.805,6.029,CST-1368DR,4087,4204,10898,01.439,553
2024-05-05T13:04:01,42.805,6.029,CST-1368DR,4087,4200,10889,01.442,553
2024-05-05T13:07:03,42.805,6.029,CST-1368DR,4087,4196,10876,01.447,553
2024-05-05T13:10:04,42.805,6.029,CST-1368DR,4087,4199,10885,01.444,553
2024-05-05T13:13:06,42.805,6.029,CST-1368DR,4087,4197,10880,01.445,553
2024-05-05T13:16:07,42.805,6.029,CST-1368DR,4087,4199,10885,01.444,553
2024-05-05T13:19:09,42.805,6.029,CST-1368DR,4087,4198,10882,01.445,553
2024-05-05T13:22:11,42.805,6.029,CST-1368DR,4087,4201,10891,01.441,553
2024-05-05T13:25:12,42.805,6.029,CST-1368DR,4087,4199,10885,01.444,553
2024-05-05T13:28:14,42.805,6.029,CST-1368DR,4087,4199,10886,01.443,553
2024-05-05T13:31:15,42.805,6.029,CST-1368DR,4087,4198,10884,01.444,553
2024-05-05T13:34:17,42.805,6.029,CST-1368DR,4087,4202,10892,01.441,553
2024-05-05T13:37:18,42.805,6.029,CST-1368DR,4087,4196,10878,01.446,553
2024-05-05T13:40:20,42.805,6.029,CST-1368DR,4087,4196,10876,01.447,553
2024-05-05T13:43:22,42.805,6.029,CST-1368DR,4087,4199,10886,01.443,553
2024-05-05T13:46:23,42.805,6.029,CST-1368DR,4087,4200,10887,01.443,553
2024-05-05T13:49:25,42.805,6.029,CST-1368DR,4087,4201,10889,01.442,553
2024-05-05T13:52:26,42.805,6.029,CST-1368DR,4087,4201,10890,01.442,553
2024-05-05T13:55:28,42.805,6.029,CST-1368DR,4087,4199,10886,01.443,553
2024-05-05T13:58:30,42.805,6.029,CST-1368DR,4087,4200,10887,01.443,553
2024-05-05T14:01:31,42.805,6.029,CST-1368DR,4087,4199,10886,01.443,553
2024-05-05T14:04:33,42.805,6.029,CST-1368DR,4087,4201,10889,01.442,553
2024-05-05T14:07:34,42.805,6.029,CST-1368DR,4087,4204,10897,01.439,553
2024-05-05T14:10:36,42.805,6.029,CST-1368DR,4087,4195,10876,01.447,553
2024-05-05T14:13:37,42.805,6.029,CST-1368DR,4087,4199,10884,01.444,553
2024-05-05T14:16:39,42.805,6.029,CST-1368DR,4087,4198,10883,01.444,553
2024-05-05T14:19:41,42.805,6.029,CST-1368DR,4087,4202,10893,01.441,553
2024-05-05T14:22:42,42.805,6.029,CST-1368DR,4087,4197,10879,01.446,553
2024-05-05T14:25:44,42.805,6.029,CST-1368DR,4087,4198,10882,01.445,553
2024-05-05T14:28:45,42.805,6.029,CST-1368DR,4087,4198,10882,01.445,553
2024-05-05T14:31:47,42.805,6.029,CST-1368DR,4087,4202,10893,01.441,553
2024-05-05T14:34:49,42.805,6.029,CST-1368DR,4087,4196,10877,01.447,553
2024-05-05T14:37:50,42.805,6.029,CST-1368DR,4087,4193,10870,01.449,553
2024-05-05T14:40:52,42.805,6.029,CST-1368DR,4087,4199,10884,01.444,553
2024-05-05T14:43:53,42.805,6.029,CST-1368DR,4087,4202,10893,01.441,553
2024-05-05T14:46:55,42.805,6.029,CST-1368DR,4087,4200,10889,01.442,553
2024-05-05T14:49:56,42.805,6.029,CST-1368DR,4087,4202,10892,01.441,553
2024-05-05T14:52:58,42.805,6.029,CST-1368DR,4087,4196,10878,01.446,553
2024-05-05T14:56:00,42.805,6.029,CST-1368DR,4087,4195,10876,01.447,553
2024-05-05T14:59:01,42.805,6.029,CST-1368DR,4087,4197,10880,01.445,553
2024-05-05T15:02:03,42.805,6.029,CST-1368DR,4086,4197,10882,01.445,553
2024-05-05T15:05:04,42.805,6.029,CST-1368DR,4087,4198,10883,01.444,553
2024-05-05T15:08:06,42.805,6.029,CST-1368DR,4087,4199,10884,01.444,553
2024-05-05T15:11:07,42.805,6.029,CST-1368DR,4087,4199,10885,01.444,553
2024-05-05T15:14:09,42.805,6.029,CST-1368DR,4087,4195,10875,01.447,553
2024-05-05T15:17:11,42.805,6.029,CST-1368DR,4087,4193,10870,01.449,553
2024-05-05T15:20:12,42.805,6.029,CST-1368DR,4086,4191,10867,01.450,553
2024-05-05T15:23:14,42.805,6.029,CST-1368DR,4087,4194,10872,01.448,553
2024-05-05T15:26:15,42.805,6.029,CST-1368DR,4086,4189,10863,01.452,553
2024-05-05T15:29:17,42.805,6.029,CST-1368DR,4086,4193,10873,01.448,553
2024-05-05T15:32:19,42.805,6.029,CST-1368DR,4087,4193,10871,01.449,553
2024-05-05T15:35:20,42.805,6.029,CST-1368DR,4087,4199,10884,01.444,553
2024-05-05T15:38:22,42.805,6.029,CST-1368DR,4087,4196,10876,01.447,553
2024-05-05T15:41:23,42.805,6.029,CST-1368DR,4087,4194,10871,01.449,553
2024-05-05T15:44:25,42.805,6.029,CST-1368DR,4087,4196,10878,01.446,553
2024-05-05T15:47:26,42.805,6.029,CST-1368DR,4087,4200,10889,01.442,553
2024-05-05T15:50:28,42.805,6.029,CST-1368DR,4087,4194,10872,01.448,553
2024-05-05T15:53:30,42.805,6.029,CST-1368DR,4087,4195,10875,01.447,553
2024-05-05T15:56:31,42.805,6.029,CST-1368DR,4087,4194,10871,01.449,553
2024-05-05T15:59:33,42.805,6.029,CST-1368DR,4087,4196,10876,01.447,553
2024-05-05T16:02:37,42.805,6.029,CST-1368DR,4086,4195,10878,01.446,553
2024-05-05T16:05:39,42.805,6.029,CST-1368DR,4086,4195,10878,01.446,553
2024-05-05T16:08:41,42.805,6.029,CST-1368DR,4087,4195,10876,01.447,553
2024-05-05T16:11:42,42.805,6.029,CST-1368DR,4086,4192,10871,01.449,553
2024-05-05T16:14:44,42.805,6.029,CST-1368DR,4086,4195,10878,01.446,553
2024-05-05T16:17:45,42.805,6.029,CST-1368DR,4087,4196,10878,01.446,553
2024-05-05T16:20:47,42.805,6.029,CST-1368DR,4086,4193,10873,01.448,553
2024-05-05T16:23:48,42.805,6.029,CST-1368DR,4087,4194,10871,01.449,553
2024-05-05T16:26:50,42.805,6.029,CST-1368DR,4087,4198,10883,01.444,553
2024-05-05T16:29:52,42.805,6.029,CST-1368DR,4086,4191,10866,01.451,553
2024-05-05T16:32:53,42.805,6.029,CST-1368DR,4087,4194,10873,01.448,553
2024-05-05T16:35:55,42.805,6.029,CST-1368DR,4087,4201,10891,01.441,553
2024-05-05T16:38:56,42.805,6.029,CST-1368DR,4086,4193,10871,01.449,553
2024-05-05T16:41:58,42.805,6.029,CST-1368DR,4086,4194,10874,01.448,553